Location: Columbus
(29.5618°N, 96.6770°W)
Time: 06:27:10
(UTC-05:00)

Iridium 59 - Visible Passes

Search period start: 29 May 2017 00:00
Search period end: 08 June 2017 00:00
Orbit: 776 x 779 km, 86.4° (Epoch: 28 May)

Date Brightness Start Highest point End Pass type
(mag) Time Alt. Az. Time Alt. Az. Time Alt. Az.
29 May 4.9 04:53:05 24° S 04:56:14 72° W 05:01:27 10° N visible
30 May 5.6 04:20:01 26° SSE 04:22:46 56° E 04:27:51 10° NNE visible
30 May 6.9 06:02:04 10° W 06:03:45 11° WNW 06:05:28 10° WNW visible
31 May 6.7 03:46:56 19° SE 03:49:24 28° E 03:53:47 10° NNE visible
31 May 6.2 05:27:26 17° WSW 05:29:59 24° W 05:34:09 10° NNW visible
01 Jun 7.5 03:13:50 11° ESE 03:16:09 14° E 03:18:44 10° NE visible
01 Jun 5.3 04:54:19 31° SW 04:56:21 47° W 05:01:22 10° NNW visible
02 Jun 4.9 04:21:11 45° S 04:22:49 86° E 04:28:03 10° N visible
03 Jun 6.0 03:48:03 35° ESE 03:49:24 42° E 03:54:18 10° NNE visible
03 Jun 6.7 05:28:32 14° WSW 05:30:14 16° W 05:33:17 10° NW visible
04 Jun 7.0 03:14:53 20° ESE 03:16:05 21° E 03:19:56 10° NE visible
04 Jun 5.9 04:55:22 28° WSW 04:56:31 31° W 05:01:06 10° NNW visible
05 Jun 7.7 02:42:28 10° E 02:42:52 10° E 02:43:16 10° ENE visible
05 Jun 5.0 04:22:11 56° SW 04:22:56 62° W 04:28:05 10° N visible
06 Jun 5.2 03:48:59 62° ESE 03:49:26 65° E 03:54:36 10° N visible
07 Jun 6.3 03:15:46 32° E 03:16:03 32° E 03:20:38 10° NNE visible
07 Jun 6.4 04:56:15 20° W 04:56:44 20° W 05:00:33 10° NW visible
